Regional Weather Roundup
Issued by NWS

Home | Current Version | Previous Version | Text Only | Print | Product List | Glossary Off
Versions: 1 2 3 4 5 6 7 8 9 10 11 12 13 14 15 16 17 18 19 20 21 22 23 24 25 26 27 28 29 30 31 32 33 34 35 36 37 38 39 40 41 42 43 44 45 46 47 48 49 50

000
ASUS43 KLSX 211207
RWRMO

WEATHER SUMMARY FOR MISSOURI
NATIONAL WEATHER SERVICE SPRINGFIELD MO
700 AM CDT TUE OCT 21 2014

NOTE: "FAIR" INDICATES FEW OR NO CLOUDS BELOW 12,000 FEET WITH NO
       SIGNIFICANT WEATHER AND/OR OBSTRUCTIONS TO VISIBILITY.
       CURRENT SKY AND/OR WEATHER CONDITIONS ARE NOT AVAILABLE FOR
       CHILLICOTHE AND FARMINGTON.

MOZ001>031-035>038-043-044-053-054-211300-
...NORTHERN AND WESTERN MISSOURI...

CITY           SKY/WX    TMP DP  RH WIND       PRES   REMARKS
KANSAS CTY INT CLEAR     46  43  89 NE3       30.11S
6HR MIN TEMP:  42; 6HR MAX TEMP:  56;

KANSAS C DTWN  CLEAR     46  44  93 CALM      30.12R
6HR MIN TEMP:  45; 6HR MAX TEMP:  51;

LEE`S SUMMIT   CLEAR     50  43  77 CALM      30.11S
6HR MIN TEMP:  45; 6HR MAX TEMP:  57;

ST JOSEPH      FOG       35  34  96 CALM      30.12S VSB 1/2
6HR MIN TEMP:  33; 6HR MAX TEMP:  42;

CHILLICOTHE      N/A     41  38  89 CALM      30.13R
6HR MIN TEMP:  41; 6HR MAX TEMP:  45;

KIRKSVILLE     CLEAR     40  39  97 N3        30.12R
6HR MIN TEMP:  39; 6HR MAX TEMP:  45;


$$
MOZ066>068-077>081-088>096-101>105-211300-
...SOUTHWEST MISSOURI...

CITY           SKY/WX    TMP DP  RH WIND       PRES   REMARKS
SPRINGFIELD    CLEAR     47  45  93 S3        30.11R
6HR MIN TEMP:  45; 6HR MAX TEMP:  52;

JOPLIN         FOG       50  50 100 E5        30.11R VSB 1
6HR MIN TEMP:  48; 6HR MAX TEMP:  54;


$$
MOZ032>034-039>042-045>050-055>058-069>072-211300-
...CENTRAL MISSOURI...

CITY           SKY/WX    TMP DP  RH WIND       PRES   REMARKS
COLUMBIA       CLEAR     46  42  86 NW6       30.11R
6HR MIN TEMP:  44; 6HR MAX TEMP:  53;

JEFFERSON CITY CLEAR     42  40  92 CALM      30.11R
6HR MIN TEMP:  41; 6HR MAX TEMP:  47;

ROLLA          CLEAR     46  42  86 SW3       30.08R
6HR MIN TEMP:  44; 6HR MAX TEMP:  50;

SEDALIA        CLEAR     48  42  80 W3        30.12R HAZE
6HR MIN TEMP:  46; 6HR MAX TEMP:  54;

WHITEMAN AFB   CLEAR     44  41  91 CALM      30.11R
OSAGE BEACH    CLEAR     41  37  87 CALM      30.11R

$$
MOZ051-052-059>065-211300-
...EAST CENTRAL MISSOURI...

CITY           SKY/WX    TMP DP  RH WIND       PRES   REMARKS
ST LOUIS INTL  CLEAR     49  43  80 CALM      30.08R
6HR MIN TEMP:  48; 6HR MAX TEMP:  53;

SPIRIT OF STL  CLEAR     42  41  96 CALM      30.08R
6HR MIN TEMP:  40; 6HR MAX TEMP:  46;

ST CHARLES     CLEAR     39  38  96 CALM      30.08R
6HR MIN TEMP:  39; 6HR MAX TEMP:  48;


$$
MOZ072>076-082>087-097>100-106>115-211300-
...SOUTH CENTRAL AND SOUTHEAST MISSOURI...

CITY           SKY/WX    TMP DP  RH WIND       PRES   REMARKS
CAPE GIRARDEAU FOG       43  41  93 CALM      30.06F VSB 1/2
6HR MIN TEMP:  42; 6HR MAX TEMP:  48; 6HR PCP:  0.01;

FARMINGTON     CLEAR     43  37  81 CALM      30.09S
6HR MIN TEMP:  43; 6HR MAX TEMP:  46;

WEST PLAINS    CLEAR     42  40  92 CALM      30.11R
6HR MIN TEMP:  42; 6HR MAX TEMP:  54;


$$



USA.gov is the U.S. government's official web portal to all federal, state and local government web resources and services.